Regional Weather Roundup
Issued by NWS

Home | Current Version | Previous Version | Text Only | Print | Product List | Glossary On
Versions: 1 2 3 4 5 6 7 8 9 10 11 12 13 14 15 16 17 18 19 20 21 22 23 24 25 26 27 28 29 30 31 32 33 34 35 36 37 38 39 40 41 42 43 44 45 46 47 48 49 50
000
ASUS43 KLSX 030509
RWRMO

WEATHER ROUNDUP FOR MISSOURI
NATIONAL WEATHER SERVICE ST LOUIS MO
1100 PM CST TUE MAR 02 2021

NOTE: "FAIR" INDICATES FEW OR NO CLOUDS BELOW 12,000 FEET WITH NO
       SIGNIFICANT WEATHER AND/OR OBSTRUCTIONS TO VISIBILITY.
       CURRENT SKY AND/OR WEATHER CONDITIONS ARE NOT AVAILABLE FOR
       CHILLICOTHE AND FARMINGTON.

MOZ001>031-035>038-043-044-053-054-030600-
...NORTHERN AND WESTERN MISSOURI...

CITY           SKY/WX    TMP DP  RH WIND       PRES   REMARKS
KANSAS CTY INT CLEAR     48  23  37 SW12      29.98S
KANSAS C DTWN  CLEAR     45  22  40 S10       29.99S
LEE`S SUMMIT   CLEAR     47  24  40 SW13      30.01S
ST JOSEPH      CLEAR     43  22  43 S5        29.97S
CHILLICOTHE      N/A     45  26  47 S8        29.98F
KIRKSVILLE     CLEAR     45  30  55 SW12      29.98F

$$
MOZ066>068-077>081-088>096-101>105-030600-
...SOUTHWEST MISSOURI...

CITY           SKY/WX    TMP DP  RH WIND       PRES   REMARKS
SPRINGFIELD    CLEAR     38  26  62 S7        30.08S
JOPLIN         CLEAR     41  25  53 S9        30.09R

$$
MOZ032>034-039>042-045>050-055>058-069>072-030600-
...CENTRAL MISSOURI...

CITY           SKY/WX    TMP DP  RH WIND       PRES   REMARKS
COLUMBIA       CLEAR     41  26  55 S10       30.03F
JEFFERSON CITY CLEAR     46  24  42 CALM      30.06F
ROLLA          CLEAR     35  25  66 SW8       30.07S WCI  29
SEDALIA        CLEAR     48  25  40 SW13      30.04F
WHITEMAN AFB   CLEAR     41  26  55 S10       29.99S
FT LEONARD WD  CLEAR     41  24  50 S5        30.07F
OSAGE BEACH    CLEAR     40  27  59 S5        30.07F

$$
MOZ051-052-059>065-030600-
...EAST CENTRAL MISSOURI...

CITY           SKY/WX    TMP DP  RH WIND       PRES   REMARKS
ST LOUIS INTL  CLEAR     46  30  53 S7        30.06F
SPIRIT OF STL  CLEAR     33  28  81 W3        30.05F
ST CHARLES     CLEAR     37  31  78 E5        30.04F

$$
MOZ072>076-082>087-097>100-106>115-030600-
...SOUTH CENTRAL AND SOUTHEAST MISSOURI...

CITY           SKY/WX    TMP DP  RH WIND       PRES   REMARKS
CAPE GIRARDEAU CLEAR    N/A N/A N/A SW7       30.13F
FARMINGTON     CLEAR     41  31  67 S3        30.10F
POPLAR BLUFF   CLEAR     39  31  72 SW6       30.14F
WEST PLAINS    CLEAR     41  30  65 SW6       30.11F
$$




USA.gov is the U.S. government's official web portal to all federal, state and local government web resources and services.